Hourly Weather Kitale

Today, 27 July, Tuesday

Time Temperature Precipitation Wind Pressure Humidity
00:00 +15°C° 0.1 mm 1 mps 614 mmHg 92%
01:00 +15°C° 0.1 mm 1 mps 614 mmHg 93%
02:00 +14°C° 0.1 mm 1 mps 613 mmHg 94%
03:00 +14°C° 0.1 mm 1 mps 613 mmHg 93%
04:00 +14°C° 0.1 mm 1 mps 613 mmHg 93%
05:00 +14°C° 0.1 mm 1 mps 613 mmHg 92%
06:00 +15°C° 0 mm 1 mps 614 mmHg 87%
07:00 +18°C° 0 mm 1 mps 615 mmHg 83%
08:00 +19°C° 0 mm 1 mps 615 mmHg 78%
09:00 +20°C° 0 mm 1 mps 615 mmHg 73%
10:00 +22°C° 0 mm 1 mps 616 mmHg 68%
11:00 +23°C° 0 mm 2 mps 616 mmHg 62%
12:00 +23°C° 0.4 mm 2 mps 615 mmHg 67%
13:00 +21°C° 0.4 mm 2 mps 615 mmHg 71%
14:00 +21°C° 0.4 mm 2 mps 614 mmHg 75%
15:00 +20°C° 0.6 mm 2 mps 614 mmHg 79%
16:00 +20°C° 0.6 mm 1 mps 614 mmHg 82%
17:00 +20°C° 0.6 mm 1 mps 614 mmHg 85%
18:00 +19°C° 0.2 mm 1 mps 614 mmHg 86%
19:00 +16°C° 0.2 mm 0 mps 614 mmHg 87%
20:00 +15°C° 0.2 mm 0 mps 614 mmHg 88%
21:00 +15°C° 0 mm 0 mps 614 mmHg 88%
22:00 +15°C° 0 mm 0 mps 614 mmHg 89%
23:00 +16°C° 0 mm 1 mps 614 mmHg 89%

Tomorrow, 28 July, Wednesday

Time Temperature Precipitation Wind Pressure Humidity
00:00 +16°C° 0.1 mm 1 mps 614 mmHg 90%
01:00 +16°C° 0.1 mm 1 mps 613 mmHg 90%
02:00 +15°C° 0.1 mm 1 mps 613 mmHg 90%
03:00 +15°C° 0.2 mm 1 mps 613 mmHg 91%
04:00 +15°C° 0.2 mm 1 mps 613 mmHg 91%
05:00 +15°C° 0.2 mm 1 mps 613 mmHg 92%
06:00 +15°C° 0.2 mm 0 mps 614 mmHg 90%
07:00 +15°C° 0.2 mm 0 mps 614 mmHg 89%
08:00 +16°C° 0.2 mm 0 mps 615 mmHg 88%
09:00 +19°C° 0.7 mm 1 mps 615 mmHg 85%
10:00 +20°C° 0.7 mm 1 mps 615 mmHg 82%
11:00 +21°C° 0.7 mm 1 mps 615 mmHg 79%
12:00 +21°C° 0.9 mm 1 mps 615 mmHg 78%
13:00 +21°C° 0.9 mm 1 mps 615 mmHg 76%
14:00 +21°C° 0.9 mm 1 mps 614 mmHg 75%
15:00 +21°C° 0.4 mm 1 mps 614 mmHg 78%
16:00 +20°C° 0.4 mm 1 mps 614 mmHg 81%
17:00 +20°C° 0.4 mm 1 mps 614 mmHg 84%
18:00 +19°C° 0.1 mm 1 mps 614 mmHg 85%
19:00 +18°C° 0.1 mm 1 mps 614 mmHg 87%
20:00 +16°C° 0.1 mm 1 mps 614 mmHg 88%
21:00 +16°C° 0.1 mm 1 mps 614 mmHg 88%
22:00 +16°C° 0.1 mm 1 mps 614 mmHg 88%
23:00 +15°C° 0.1 mm 0 mps 614 mmHg 89%

Day after tomorrow, 29 July, Thursday

Time Temperature Precipitation Wind Pressure Humidity
00:00 +16°C° 0.4 mm 1 mps 614 mmHg 90%
01:00 +16°C° 0.4 mm 1 mps 614 mmHg 92%
02:00 +15°C° 0.4 mm 1 mps 613 mmHg 94%
03:00 +15°C° 0.4 mm 1 mps 614 mmHg 94%
04:00 +15°C° 0.4 mm 1 mps 614 mmHg 93%
05:00 +15°C° 0.4 mm 1 mps 614 mmHg 93%
06:00 +16°C° 0.1 mm 1 mps 615 mmHg 91%
07:00 +16°C° 0.1 mm 1 mps 615 mmHg 89%
08:00 +18°C° 0.1 mm 1 mps 615 mmHg 87%
09:00 +20°C° 0.3 mm 1 mps 616 mmHg 79%
10:00 +21°C° 0.3 mm 1 mps 616 mmHg 70%
11:00 +23°C° 0.3 mm 1 mps 616 mmHg 62%
12:00 +23°C° 1 mm 1 mps 616 mmHg 65%
13:00 +23°C° 1 mm 1 mps 615 mmHg 69%
14:00 +23°C° 1 mm 1 mps 615 mmHg 72%
15:00 +22°C° 1.2 mm 1 mps 615 mmHg 77%
16:00 +21°C° 1.2 mm 1 mps 615 mmHg 82%
17:00 +18°C° 1.2 mm 0 mps 615 mmHg 86%
18:00 +19°C° 0.4 mm 1 mps 614 mmHg 88%
19:00 +18°C° 0.4 mm 1 mps 614 mmHg 90%
20:00 +16°C° 0.4 mm 1 mps 614 mmHg 92%
21:00 +16°C° 0.2 mm 1 mps 614 mmHg 91%
22:00 +16°C° 0.2 mm 1 mps 614 mmHg 90%
23:00 +16°C° 0.2 mm 1 mps 614 mmHg 90%

30 July, Friday

Time Temperature Precipitation Wind Pressure Humidity
00:00 +16°C° 0.2 mm 1 mps 614 mmHg 90%
01:00 +16°C° 0.2 mm 1 mps 614 mmHg 90%
02:00 +16°C° 0.2 mm 1 mps 613 mmHg 90%
03:00 +15°C° 0.1 mm 1 mps 614 mmHg 90%
04:00 +15°C° 0.1 mm 1 mps 614 mmHg 90%
05:00 +15°C° 0.1 mm 1 mps 614 mmHg 90%
06:00 +16°C° 0 mm 1 mps 615 mmHg 86%
07:00 +19°C° 0 mm 1 mps 615 mmHg 82%
08:00 +20°C° 0 mm 1 mps 616 mmHg 77%
09:00 +21°C° 0.1 mm 1 mps 616 mmHg 70%
10:00 +23°C° 0.1 mm 2 mps 616 mmHg 63%
11:00 +24°C° 0.1 mm 2 mps 617 mmHg 55%
12:00 +24°C° 0.5 mm 2 mps 616 mmHg 60%
13:00 +23°C° 0.5 mm 2 mps 616 mmHg 65%
14:00 +23°C° 0.5 mm 2 mps 615 mmHg 69%
15:00 +21°C° 0.7 mm 2 mps 615 mmHg 75%
16:00 +21°C° 0.7 mm 1 mps 615 mmHg 80%
17:00 +20°C° 0.7 mm 1 mps 615 mmHg 86%
18:00 +19°C° 0.6 mm 1 mps 615 mmHg 88%
19:00 +18°C° 0.6 mm 1 mps 615 mmHg 90%
20:00 +16°C° 0.6 mm 1 mps 615 mmHg 91%
21:00 +16°C° 0.2 mm 1 mps 615 mmHg 91%
22:00 +16°C° 0.2 mm 1 mps 615 mmHg 90%
23:00 +16°C° 0.2 mm 1 mps 615 mmHg 89%

31 July, Saturday

Time Temperature Precipitation Wind Pressure Humidity
00:00 +16°C° 0.2 mm 1 mps 615 mmHg 89%
01:00 +16°C° 0.2 mm 1 mps 614 mmHg 89%
02:00 +16°C° 0.2 mm 1 mps 614 mmHg 89%
03:00 +15°C° 0 mm 1 mps 614 mmHg 89%
04:00 +15°C° 0 mm 1 mps 614 mmHg 89%
05:00 +14°C° 0 mm 1 mps 614 mmHg 89%
06:00 +16°C° 0 mm 1 mps 615 mmHg 84%
07:00 +18°C° 0 mm 1 mps 616 mmHg 79%
08:00 +18°C° 0 mm 0 mps 616 mmHg 74%
09:00 +21°C° 0.1 mm 1 mps 617 mmHg 67%
10:00 +23°C° 0.1 mm 1 mps 617 mmHg 61%
11:00 +24°C° 0.1 mm 2 mps 617 mmHg 55%
12:00 +24°C° 0.4 mm 2 mps 617 mmHg 58%
13:00 +23°C° 0.4 mm 2 mps 616 mmHg 61%
14:00 +22°C° 0.4 mm 3 mps 616 mmHg 64%
15:00 +21°C° 0.4 mm 2 mps 615 mmHg 69%
16:00 +21°C° 0.4 mm 1 mps 615 mmHg 75%
17:00 +20°C° 0.4 mm 1 mps 615 mmHg 81%
18:00 +19°C° 0.1 mm 1 mps 615 mmHg 82%
19:00 +18°C° 0.1 mm 1 mps 615 mmHg 83%
20:00 +16°C° 0.1 mm 1 mps 615 mmHg 84%
21:00 +16°C° 0 mm 1 mps 615 mmHg 85%
22:00 +15°C° 0 mm 1 mps 615 mmHg 85%
23:00 +15°C° 0 mm 1 mps 615 mmHg 86%

1 August, Sunday

Time Temperature Precipitation Wind Pressure Humidity
00:00 +14°C° 0 mm 1 mps 615 mmHg 87%
01:00 +14°C° 0 mm 1 mps 614 mmHg 87%
02:00 +14°C° 0 mm 1 mps 614 mmHg 88%
03:00 +13°C° 0 mm 1 mps 614 mmHg 88%
04:00 +13°C° 0 mm 1 mps 614 mmHg 88%
05:00 +13°C° 0 mm 1 mps 614 mmHg 88%
06:00 +15°C° 0 mm 1 mps 615 mmHg 84%
07:00 +18°C° 0 mm 1 mps 616 mmHg 79%
08:00 +19°C° 0 mm 1 mps 617 mmHg 75%
09:00 +21°C° 0.4 mm 1 mps 617 mmHg 70%
10:00 +22°C° 0.4 mm 1 mps 617 mmHg 65%
11:00 +24°C° 0.4 mm 1 mps 617 mmHg 60%
12:00 +23°C° 0.8 mm 1 mps 617 mmHg 66%
13:00 +22°C° 0.8 mm 1 mps 616 mmHg 71%
14:00 +21°C° 0.8 mm 1 mps 616 mmHg 77%
15:00 +20°C° 1.3 mm 1 mps 616 mmHg 80%
16:00 +19°C° 1.3 mm 1 mps 615 mmHg 84%
17:00 +19°C° 1.3 mm 1 mps 615 mmHg 87%
18:00 +18°C° 0.5 mm 1 mps 615 mmHg 88%
19:00 +18°C° 0.5 mm 1 mps 616 mmHg 89%
20:00 +16°C° 0.5 mm 2 mps 616 mmHg 90%
21:00 +16°C° 0.1 mm 1 mps 616 mmHg 90%
22:00 +16°C° 0.1 mm 1 mps 616 mmHg 89%
23:00 +16°C° 0.1 mm 1 mps 616 mmHg 88%
Show more